Daggett-Barstow, CA

6:38 AM PDT on April 28, 2017 (GMT -0700)
Barstow-Daggett

Weather History for KDAG - April, 2013

Change the Weather History Date:

Thursday, April 4, 2013

  Actual Average Record
Temperature  
Mean Temperature 74 °F 62 °F  
Max Temperature 87 °F 76 °F 99 °F (1961)
Min Temperature 61 °F 48 °F 31 °F (1945)
Degree Days  
Heating Degree Days 0    
Cooling Degree Days 8    
Growing Degree Days 24 (Base 50)    
Moisture  
Dew Point 35 °F    
Average Humidity 27    
Maximum Humidity 43    
Minimum Humidity 10    
Precipitation  
Precipitation 0.00 in 0.01 in 0.16 in (2006)
Month to date precipitation 0.04  
Year to date precipitation 1.80  
Sea Level Pressure  
Sea Level Pressure 29.93 in    
Wind  
Wind Speed 13 mph (West)    
Max Wind Speed 23 mph    
Max Gust Speed 31 mph    
Visibility 10 miles    
Events      
T = Trace of Precipitation, MM = Missing Value Source: NWS Daily Summary

Daily Weather History Graph

Daily Weather History Graph

Search for Another Location

Airport or City:

Trip Planner

Search our weather history database for the weather conditions in past years. The results will help you decide how hot, cold, wet, or windy it might be!

Date:

Astronomy

Apr. 04, 2013 Rise Set
Actual Time 6:29 AM PDT 7:11 PM PDT
Civil Twilight 6:03 AM PDT 7:36 PM PDT
Nautical Twilight 5:33 AM PDT 8:06 PM PDT
Astronomical Twilight 5:03 AM PDT 8:37 PM PDT
Moon 2:46 AM PDT (4/4) 1:46 PM PDT (4/4)
Length of Visible Light 13h 32m
Length of Day
12h 41m
Waning Crescent, 32% of the Moon is Illuminated
Apr 4
Waning Crescent
Apr 10
New
Apr 18
First Quarter
Apr 25
Full
May 2
Last Quarter

Hourly Weather History & Observations

Time (PDT) Temp. Dew Point Humidity Pressure Visibility Wind Dir Wind Speed Gust Speed Precip Events Conditions
12:50 AM 66.0 °F 30.0 °F 26% 29.98 in 10.0 mi WSW 9.2 mph - N/A   Clear
2:50 AM 61.0 °F 30.0 °F 31% 29.96 in 10.0 mi West 9.2 mph - N/A   Clear
3:50 AM 61.0 °F 30.9 °F 32% 29.96 in 10.0 mi West 9.2 mph - N/A   Clear
4:50 AM 63.0 °F 30.9 °F 30% 29.95 in 10.0 mi WSW 9.2 mph - N/A   Clear
6:50 AM 62.1 °F 30.9 °F 31% 29.97 in 10.0 mi WSW 10.4 mph - N/A   Clear
7:50 AM 64.0 °F 33.1 °F 31% 29.98 in 10.0 mi West 8.1 mph - N/A   Clear
8:50 AM 66.0 °F 34.0 °F 30% 29.99 in 10.0 mi West 9.2 mph - N/A   Clear
9:50 AM 71.1 °F 34.0 °F 26% 29.99 in 10.0 mi WNW 11.5 mph - N/A   Clear
10:50 AM 75.0 °F 30.9 °F 20% 29.97 in 10.0 mi West 12.7 mph - N/A   Clear
11:50 AM 80.1 °F 32.0 °F 17% 29.95 in 10.0 mi WNW 11.5 mph 20.7 mph N/A   Clear
12:50 PM 84.0 °F 25.0 °F 12% 29.92 in 10.0 mi WNW 15.0 mph 26.5 mph N/A   Clear
1:50 PM 86.0 °F 23.0 °F 10% 29.90 in 10.0 mi WNW 17.3 mph 25.3 mph N/A   Clear
2:50 PM 86.0 °F 30.9 °F 14% 29.88 in 10.0 mi West 20.7 mph 26.5 mph N/A   Mostly Cloudy
3:50 PM 84.0 °F 37.0 °F 19% 29.87 in 10.0 mi WNW 19.6 mph - N/A   Clear
4:50 PM 82.9 °F 39.0 °F 21% 29.86 in 10.0 mi West 23.0 mph 31.1 mph N/A   Scattered Clouds
5:50 PM 82.0 °F 41.0 °F 23% 29.85 in 10.0 mi West 23.0 mph 28.8 mph N/A   Partly Cloudy
6:50 PM 78.1 °F 42.1 °F 28% 29.86 in 10.0 mi SW 20.7 mph 25.3 mph N/A   Clear
7:50 PM 73.9 °F 43.0 °F 33% 29.89 in 10.0 mi WSW 20.7 mph 24.2 mph N/A   Clear
8:50 PM 71.1 °F 42.1 °F 35% 29.92 in 10.0 mi WSW 17.3 mph - N/A   Clear
9:50 PM 68.0 °F 41.0 °F 37% 29.94 in 10.0 mi SW 19.6 mph - N/A   Unknown
10:50 PM 66.9 °F 42.1 °F 40% 29.93 in 10.0 mi SW 19.6 mph 26.5 mph N/A   Clear
11:50 PM 64.9 °F 42.1 °F 43% 29.91 in 10.0 mi WSW 20.7 mph 29.9 mph N/A   Clear